RH
25 29 28 28 27 24 20 17 16 24 29 31 22 32 39 50 51 49 46 61 60 64 63 80 82 60 71 71 68 66 66 54 48 59 72 50 46 39 62 55 62 67 58 51 44 46 39
24 28 28 28 26 23 20 19 15 17 28 28 16 28 37 50 50 53 57 55 59 60 66 76 81 77 70 76 80 69 64 60 49 47 68 72 54 64 67 53 57 61 57 50 54 49 44
16 22 24 26 25 24 22 20 18 15 14 16 16 27 36 48 49 48 52 57 64 82 88 90 84 73 68 74 81 72 64 60 58 46 56 79 77 75 63 58 56 57 59 59 58 49 44
15 16 18 20 20 20 22 24 22 19 20 19 20 27 35 45 51 44 45 54 70 74 83 87 73 75 80 82 74 73 75 70 65 54 74 82 84 76 81 64 57 55 54 56 51 51 44
20 18 20 23 23 22 20 19 19 20 21 21 24 28 36 41 51 46 44 53 61 71 78 80 77 83 85 75 74 69 68 65 70 74 81 81 82 74 62 64 52 52 48 51 45 46 38
23 22 22 22 22 21 20 20 19 20 21 23 25 26 35 35 48 50 44 47 55 60 66 76 80 91 83 85 75 69 59 66 68 70 74 77 74 77 77 63 56 46 40 43 44 41 39
15 17 19 19 18 17 17 17 17 17 19 22 24 24 27 40 38 47 52 47 54 59 62 73 83 83 90 85 86 81 62 60 68 68 74 71 84 77 63 55 52 42 40 36 40 39 38
15 16 15 15 14 13 12 11 12 14 17 18 21 23 24 24 29 39 52 52 52 61 61 73 78 83 91 89 93 81 67 72 71 76 87 91 80 66 59 57 58 51 41 37 37 36 34
6 8 8 8 8 10 11 12 12 9 9 13 18 20 22 23 22 30 46 61 62 70 73 59 62 79 86 98 89 90 78 86 84 86 86 87 71 61 59 61 56 46 42 37 36 32 27
12 12 13 16 15 13 12 12 13 14 12 9 8 12 17 22 21 22 36 57 72 82 54 56 57 74 76 76 93 95 92 87 82 88 78 98 66 58 58 57 52 47 40 39 37 35 36
26 24 20 13 11 11 11 12 12 13 14 13 13 12 10 10 13 20 23 40 67 82 74 41 41 62 79 74 89 98 94 81 79 75 79 75 60 49 50 55 50 51 41 32 30 30 38
22 18 13 10 10 12 14 15 15 14 14 14 14 14 14 13 11 11 17 22 52 68 68 31 35 55 53 55 68 97 94 75 58 70 65 54 51 48 49 47 45 43 38 34 28 40 50
15 13 11 10 10 12 15 18 19 17 16 16 17 16 16 14 14 13 9 18 43 62 28 32 33 44 58 52 69 91 88 62 62 63 61 45 42 39 40 39 39 38 35 43 66 70 40
12 11 10 9 9 10 14 18 23 21 19 18 18 18 17 16 15 17 13 18 40 28 33 23 33 51 52 41 65 74 77 74 57 59 56 58 54 45 42 36 36 36 33 48 91 55 42
10 10 9 8 8 9 11 16 22 26 24 22 21 20 20 18 17 20 18 28 29 27 21 23 28 38 37 35 56 67 67 74 64 51 63 49 54 46 44 32 32 36 33 30 26 31 44
8 8 8 7 7 8 9 12 16 24 28 26 23 22 22 22 19 20 22 21 19 15 18 22 24 24 26 29 40 58 57 60 64 52 53 50 61 50 42 33 30 31 31 31 24 89 78
8 7 7 6 6 6 7 8 12 17 23 27 26 23 23 24 23 22 21 18 15 16 15 16 16 21 24 23 31 52 54 49 52 60 59 52 36 52 47 41 36 34 33 30 39 35 70
8 7 7 6 6 6 6 6 7 11 15 19 22 25 27 24 25 23 21 17 13 14 16 16 16 16 19 24 21 36 47 50 52 56 57 58 30 34 42 36 37 39 37 35 38 43 21
10 8 8 7 7 7 6 6 6 6 9 13 16 19 21 21 25 22 20 19 17 14 15 16 17 16 15 16 19 19 23 32 38 46 43 46 25 32 23 24 22 24 24 28 32 32 26
95 64 18 13 10 9 7 7 6 6 7 8 11 18 17 19 17 18 20 19 17 14 12 14 16 17 18 18 14 17 17 14 18 19 37 16 23 23 26 33 28 19 16 18 23 25 27
95 95 95 92 42 33 24 12 9 8 8 9 10 23 18 23 23 20 22 26 22 17 15 14 14 12 15 19 20 19 18 15 12 11 20 14 17 17 13 16 18 22 21 20 18 16 23
47 56 60 73 94 95 86 71 52 18 14 16 19 18 18 19 26 26 26 21 19 22 21 16 15 13 15 16 17 20 20 22 22 22 17 17 30 25 26 24 25 24 22 22 21 23 22
3 3 3 4 27 50 72 90 83 72 58 46 32 32 34 26 26 23 26 28 21 24 23 23 19 21 18 14 19 21 23 23 24 25 26 28 30 32 36 36 32 26 13 14 12 10 11
3 3 3 2 2 3 4 19 49 74 84 94 79 75 60 47 57 51 43 31 30 30 31 26 25 26 21 21 22 24 24 26 28 27 29 32 32 40 38 49 42 21 16 16 16 13 23
3 3 3 3 2 2 3 3 3 4 4 28 71 93 94 89 76 70 63 40 34 36 36 37 34 35 35 31 32 33 34 35 31 29 31 32 35 40 42 45 30 32 16 12 14 13 17
4 4 4 3 3 3 3 3 4 5 6 6 19 64 94 96 82 89 63 44 38 52 58 39 39 39 41 42 42 47 44 36 34 32 30 32 37 46 47 52 40 22 22 23 22 28 19
5 4 4 4 5 6 9 10 10 10 8 8 9 33 74 98 92 98 97 77 63 47 58 61 52 47 52 59 59 58 49 43 42 35 30 39 56 53 58 58 46 38 31 30 39 26 31
10 11 10 9 12 16 18 16 19 76 72 31 26 29 61 66 63 97 98 97 88 85 74 74 66 60 63 66 73 66 59 49 49 41 38 32 38 59 73 66 62 41 37 41 35 37 44
96 91 68 40 32 30 25 52 50 69 89 96 90 78 75 69 65 89 90 95 97 97 95 84 78 75 82 77 78 72 63 58 56 52 48 54 40 38 40 40 34 36 38 44 53 60 64
Wind_Speed
2 1 2 3 4 4 5 5 8 10 11 13 17 19 20 17 16 16 13 11 11 10 7 3 6 10 11 13 13 16 9 12 17 19 19 22 27 28 24 25 23 33 23 30 29 26 21
3 3 3 3 5 7 8 9 8 9 11 14 15 15 18 16 14 13 11 12 14 12 10 5 3 7 9 8 15 16 17 13 15 19 21 20 27 23 18 20 28 24 25 28 34 28 26
6 5 5 5 6 9 10 10 10 11 11 11 11 12 15 16 13 10 10 13 13 16 11 7 5 4 7 10 10 12 15 17 13 17 21 18 22 25 18 20 23 21 29 30 33 30 28
7 7 6 6 7 8 10 11 11 11 12 10 9 9 12 13 11 9 9 10 13 11 18 10 3 2 5 5 5 8 10 14 13 18 21 22 23 25 16 18 23 24 21 26 30 33 31
7 8 9 9 9 10 10 10 11 11 11 10 8 8 8 12 9 7 7 7 8 11 12 14 8 4 3 5 5 6 9 11 13 19 18 20 23 25 25 21 20 28 26 30 24 31 28
9 9 11 11 11 11 12 11 11 11 11 10 8 8 7 8 10 8 7 4 4 7 10 9 8 2 3 5 7 7 8 12 15 18 18 22 24 23 23 22 28 33 33 34 32 24 30
9 10 10 11 12 12 12 12 12 11 12 10 10 8 9 9 8 9 7 7 6 8 9 8 7 1 5 6 8 7 8 10 16 18 19 23 21 26 29 24 26 29 31 30 29 25 28
9 8 8 8 9 10 11 11 11 11 11 10 10 11 11 10 9 8 8 6 7 8 14 11 10 9 9 11 11 9 7 13 15 17 16 16 25 21 23 20 24 21 29 33 22 25 21
11 10 9 8 8 7 8 9 9 10 10 10 10 9 11 12 11 9 8 6 8 11 16 17 10 12 12 11 13 13 12 16 11 16 17 17 19 21 28 21 20 14 21 31 18 19 20
9 9 8 6 5 6 6 7 8 8 9 8 10 10 10 11 12 10 8 8 8 12 12 9 8 9 10 10 12 7 9 10 14 15 14 18 17 16 24 15 20 14 20 16 20 18 13
10 9 8 7 7 7 7 7 8 8 8 8 8 9 9 10 11 12 10 9 9 11 5 5 10 10 10 9 15 9 9 7 11 13 13 8 14 16 23 15 20 14 15 16 16 11 13
12 12 12 10 9 9 8 8 8 8 7 7 7 8 8 7 7 8 9 9 8 5 6 5 7 8 8 8 12 13 10 11 16 15 18 13 13 16 22 21 16 15 10 10 9 6 4
15 14 14 14 13 12 11 10 9 8 6 5 5 6 7 7 5 5 6 7 4 7 8 5 6 6 6 7 2 12 10 12 10 14 9 10 14 12 17 15 16 16 14 3 1 3 6
18 17 16 16 16 16 14 13 11 10 8 8 7 6 7 7 5 3 4 6 8 6 9 10 5 5 4 3 8 14 12 12 14 14 11 9 6 12 11 16 13 18 19 6 6 6 8
19 19 19 19 19 19 19 17 15 13 12 10 11 10 9 8 6 4 6 8 5 7 8 7 6 7 5 5 8 15 15 10 13 13 5 10 7 18 14 15 15 19 17 17 1 1 0
21 21 21 21 22 22 21 21 20 17 15 14 13 13 13 13 9 7 11 12 10 10 11 8 6 6 5 7 9 17 14 15 12 18 12 7 3 16 18 16 17 13 18 9 7 3 4
24 23 23 24 25 25 24 24 23 22 20 18 17 16 15 14 14 13 17 16 13 12 9 8 8 9 9 9 11 18 10 17 18 18 18 11 7 10 14 15 17 19 15 11 8 6 3
24 24 25 26 26 27 27 27 26 24 23 22 20 19 16 14 17 17 20 18 15 13 11 10 10 12 10 10 13 16 15 20 20 20 18 17 6 6 14 18 20 23 22 19 9 7 8
24 25 26 27 27 28 28 29 28 27 25 24 24 24 22 21 24 24 23 23 21 19 16 11 10 11 12 13 8 16 14 17 17 20 16 20 9 4 3 13 19 23 26 23 23 14 12
33 34 24 24 26 28 29 30 29 28 27 26 24 21 22 23 26 27 27 25 23 22 20 19 18 14 14 15 18 8 20 15 19 19 23 14 16 13 9 4 8 17 24 24 21 13 15
22 24 24 34 35 31 29 27 28 27 28 27 26 24 26 21 17 22 26 25 22 22 24 23 23 20 16 15 17 22 18 18 18 19 22 21 15 19 22 18 14 11 11 13 24 28 15
22 25 27 25 22 30 44 45 40 28 26 26 25 26 29 32 30 29 27 29 26 26 26 25 25 20 18 23 19 11 17 19 18 21 22 23 11 16 15 18 18 19 20 22 24 26 31
24 25 26 24 24 26 28 24 36 41 37 28 28 28 30 33 32 34 31 30 30 26 27 27 26 25 25 23 23 23 20 18 20 20 21 24 20 11 8 14 13 19 32 32 34 35 32
29 29 30 31 30 31 30 31 33 30 29 36 41 32 31 35 26 29 29 33 30 27 28 28 25 26 27 25 24 27 27 24 22 24 22 20 19 12 11 6 6 21 23 23 26 27 27
32 33 33 33 34 33 33 33 33 30 29 31 30 36 47 41 30 28 30 34 34 33 33 30 26 26 23 22 21 22 23 25 30 33 30 29 26 14 9 15 21 21 20 21 20 19 20
37 37 37 36 35 35 34 33 31 31 29 28 30 29 30 42 49 37 36 34 35 29 26 34 30 27 28 25 23 17 14 18 13 15 35 38 34 24 14 8 8 9 12 14 17 28 26
37 37 36 36 35 33 30 29 27 26 26 27 28 28 28 35 37 40 40 38 33 35 29 24 25 30 28 28 29 23 23 19 17 19 15 26 33 37 29 20 16 19 18 19 16 20 18
33 32 31 30 29 28 26 24 22 18 19 22 23 25 28 32 37 32 26 44 41 37 33 28 25 33 27 30 24 24 22 23 26 23 22 25 19 20 18 14 15 21 23 23 24 25 26
21 22 23 23 23 22 21 19 19 20 19 16 17 20 23 26 31 27 32 37 33 44 45 44 37 22 21 20 24 21 23 23 24 26 26 26 31 22 22 23 31 28 25 22 23 25 26
Wind_Direction
345 341 356 341 346 338 329 334 323 327 337 344 355 2 359 359 1 6 2 358 359 357 342 280 243 243 238 237 245 251 249 238 230 224 217 218 217 206 213 215 210 218 218 218 219 225 231
283 304 304 310 317 315 319 325 329 314 319 331 347 360 358 360 4 17 23 8 2 0 352 330 282 269 250 259 251 254 249 247 230 223 217 214 215 204 219 214 213 223 213 217 221 226 233
278 287 297 302 308 311 315 321 330 325 322 329 342 357 0 358 3 24 32 22 18 28 3 327 270 274 254 231 250 259 251 235 246 224 212 214 211 206 204 213 211 212 212 214 219 223 231
275 281 285 295 302 305 312 316 323 323 323 330 336 346 2 0 358 5 32 45 28 1 19 20 56 216 172 200 225 241 245 224 235 217 206 205 204 209 213 207 210 205 206 212 219 220 227
260 270 277 287 294 300 305 312 316 319 320 325 329 334 350 3 354 348 16 45 31 17 22 42 52 57 134 199 206 210 212 213 213 204 207 205 200 203 203 201 201 202 206 207 212 219 225
257 263 275 285 291 291 300 304 308 312 314 318 322 327 333 354 355 347 334 352 11 360 1 2 350 350 223 228 229 213 207 204 202 195 202 199 195 200 204 203 204 200 209 211 212 225 220
250 262 276 287 294 298 302 305 310 312 306 309 308 310 321 327 347 338 325 321 334 329 332 329 308 269 198 219 235 241 220 207 200 197 197 194 193 203 202 205 205 213 213 212 213 225 219
256 258 267 283 293 300 305 307 310 312 309 304 300 300 302 310 317 328 319 306 304 302 309 306 296 265 258 238 219 206 217 195 201 198 189 192 207 209 202 214 213 223 215 215 207 219 216
260 263 269 276 287 297 306 310 314 312 306 302 298 296 295 297 302 308 310 296 295 305 305 297 277 267 273 259 252 202 200 191 202 198 203 206 198 197 202 216 204 215 208 210 213 220 218
264 262 263 267 278 290 301 310 316 318 320 315 299 291 288 287 292 296 299 295 293 305 304 266 282 270 269 284 263 243 180 202 202 206 211 218 198 200 205 218 205 214 205 202 210 219 224
271 265 262 266 271 282 295 305 312 317 321 326 326 318 300 291 285 287 285 286 292 304 292 258 267 270 277 270 307 195 164 185 198 204 194 209 191 189 200 213 203 213 215 210 215 203 219
273 273 271 267 267 268 277 289 299 306 314 326 335 333 325 312 294 278 278 278 285 290 254 285 276 272 279 286 300 182 187 198 200 204 207 208 187 190 201 218 216 217 209 208 205 199 223
268 270 273 273 268 267 272 278 284 291 292 302 327 343 333 332 305 291 261 262 280 236 281 275 278 264 257 276 255 186 192 178 168 179 184 161 174 182 201 209 213 211 190 101 136 176 231
265 268 269 270 270 270 267 269 273 278 275 275 278 301 322 329 324 279 238 213 244 264 271 286 268 257 223 240 180 193 192 201 192 183 184 178 180 195 195 204 197 199 191 197 189 198 209
268 268 268 269 268 268 268 266 266 269 274 273 268 273 285 300 306 273 215 211 246 281 283 275 255 235 234 217 184 189 208 218 196 191 193 182 201 198 224 211 199 199 208 216 321 356 234
269 268 268 268 268 268 268 268 267 264 267 269 271 267 268 273 282 262 229 252 262 287 284 265 254 240 235 215 194 198 211 219 206 203 207 195 184 196 211 215 211 202 206 205 210 199 224
270 270 267 266 266 267 268 268 268 268 265 267 269 271 267 266 264 258 246 266 280 284 275 258 258 257 243 226 208 205 216 221 229 219 208 209 215 204 214 217 214 210 209 209 202 205 230
273 272 270 270 269 269 268 267 267 267 268 267 267 272 268 261 254 254 263 271 279 281 271 259 257 246 247 240 220 214 221 220 207 218 224 225 205 232 216 229 227 222 218 219 218 207 217
276 278 276 274 273 271 270 269 268 267 266 265 267 264 261 261 258 263 261 265 268 271 268 257 245 241 236 240 233 225 231 227 229 222 221 214 215 201 257 243 232 226 224 220 220 220 217
276 262 267 274 274 274 273 273 272 271 269 265 267 269 263 259 257 257 259 260 259 259 260 257 256 248 239 231 228 249 236 238 228 231 221 222 217 220 250 236 227 222 230 225 219 219 228
293 297 293 268 259 270 276 274 271 272 271 270 265 260 256 255 256 256 257 252 257 255 253 253 250 248 247 239 234 237 240 236 231 222 215 218 232 233 240 249 258 247 236 226 225 232 220
297 294 293 296 310 285 264 262 268 270 269 268 266 264 256 253 254 255 256 261 257 259 258 257 246 250 253 245 245 246 239 234 228 226 222 219 235 242 252 248 246 250 248 251 249 249 252
302 300 299 300 294 291 288 300 270 265 261 268 265 264 262 258 259 257 256 260 260 261 260 257 259 257 251 252 248 246 244 237 232 232 226 224 230 239 247 253 268 271 259 255 257 261 261
302 301 300 299 298 296 296 291 287 284 293 265 255 266 267 265 259 258 260 255 257 258 258 257 256 254 253 252 245 243 242 240 237 238 233 233 235 227 257 265 243 258 260 254 253 263 254
297 297 297 297 296 294 294 294 292 291 287 285 285 266 259 267 264 257 261 264 259 254 256 256 253 252 251 246 241 237 238 241 238 240 240 241 241 239 237 242 265 267 262 262 262 252 252
295 296 296 296 296 295 294 293 292 291 287 283 278 277 272 265 258 264 260 258 261 262 262 254 251 250 247 242 230 224 220 234 231 233 233 236 237 224 219 236 249 252 249 244 258 259 258
291 291 292 292 293 294 296 299 298 294 289 283 275 273 267 259 268 260 259 257 258 257 251 252 251 245 243 237 234 235 238 233 235 234 227 219 225 225 227 237 258 252 263 266 232 265 262
292 291 289 288 290 290 292 292 294 300 298 288 281 272 267 264 261 250 256 250 247 255 254 248 248 243 239 231 231 231 240 235 239 235 238 233 221 218 214 233 250 257 255 235 250 262 266
303 303 299 292 288 291 292 295 292 285 280 286 290 288 278 268 265 263 252 245 242 246 243 249 244 239 220 226 234 238 240 238 237 240 235 232 235 242 235 244 261 270 267 263 259 260 258